QPF
0.00 0.00 0.00 0.00 0.00 0.00 0.00 0.00 0.00 0.00 0.00 0.00 0.00 0.00 0.00 0.00 0.00 0.00 0.00 0.00 0.00 0.00 0.00 0.00 0.00 0.00 0.00 0.00 0.00 0.00 0.00 0.00 0.00 0.00 0.00 0.00 0.00 0.00 0.01 0.01 0.01 0.02 0.03 0.03
0.00 0.00 0.00 0.00 0.00 0.00 0.00 0.00 0.00 0.00 0.00 0.00 0.00 0.00 0.00 0.00 0.00 0.00 0.00 0.00 0.00 0.00 0.00 0.00 0.00 0.00 0.00 0.00 0.00 0.00 0.00 0.00 0.00 0.01 0.01 0.01 0.01 0.01 0.02 0.03 0.04 0.04 0.04 0.05
0.00 0.00 0.00 0.00 0.00 0.00 0.00 0.00 0.00 0.00 0.00 0.00 0.00 0.00 0.00 0.00 0.00 0.00 0.00 0.00 0.00 0.00 0.00 0.00 0.00 0.00 0.00 0.00 0.00 0.00 0.00 0.00 0.01 0.01 0.01 0.02 0.02 0.03 0.03 0.04 0.05 0.06 0.07 0.09
0.00 0.00 0.00 0.00 0.00 0.00 0.00 0.00 0.00 0.00 0.00 0.00 0.00 0.00 0.00 0.00 0.00 0.00 0.00 0.00 0.00 0.00 0.00 0.00 0.00 0.00 0.00 0.00 0.00 0.00 0.00 0.01 0.01 0.02 0.02 0.03 0.04 0.05 0.05 0.07 0.07 0.08 0.09 0.11
0.00 0.00 0.00 0.00 0.00 0.00 0.00 0.00 0.00 0.00 0.00 0.00 0.00 0.00 0.00 0.00 0.00 0.00 0.00 0.00 0.00 0.00 0.00 0.00 0.00 0.00 0.00 0.00 0.00 0.00 0.01 0.01 0.02 0.03 0.04 0.04 0.05 0.06 0.07 0.08 0.08 0.09 0.10 0.12
0.00 0.00 0.00 0.00 0.00 0.00 0.00 0.00 0.00 0.00 0.00 0.00 0.00 0.00 0.00 0.00 0.00 0.00 0.00 0.00 0.00 0.00 0.00 0.00 0.00 0.00 0.00 0.00 0.00 0.01 0.01 0.01 0.02 0.03 0.05 0.05 0.06 0.08 0.10 0.10 0.09 0.09 0.09 0.11
0.00 0.00 0.00 0.00 0.00 0.00 0.00 0.00 0.00 0.00 0.00 0.00 0.00 0.00 0.00 0.00 0.00 0.00 0.00 0.00 0.00 0.00 0.00 0.00 0.00 0.00 0.00 0.00 0.01 0.01 0.01 0.01 0.02 0.04 0.05 0.05 0.06 0.07 0.08 0.09 0.10 0.09 0.09 0.10
0.00 0.00 0.00 0.00 0.00 0.00 0.00 0.00 0.00 0.00 0.00 0.00 0.00 0.00 0.00 0.00 0.00 0.00 0.00 0.00 0.00 0.00 0.00 0.00 0.00 0.00 0.00 0.01 0.01 0.01 0.01 0.02 0.02 0.03 0.03 0.03 0.05 0.06 0.07 0.07 0.09 0.09 0.09 0.10
0.00 0.00 0.00 0.00 0.00 0.00 0.00 0.00 0.00 0.00 0.00 0.00 0.00 0.00 0.00 0.00 0.00 0.00 0.00 0.00 0.00 0.00 0.00 0.00 0.00 0.00 0.01 0.01 0.01 0.01 0.01 0.02 0.02 0.02 0.03 0.04 0.05 0.06 0.07 0.07 0.08 0.09 0.08 0.08
0.00 0.00 0.00 0.00 0.00 0.00 0.00 0.00 0.00 0.00 0.00 0.00 0.00 0.00 0.00 0.00 0.00 0.00 0.00 0.00 0.00 0.00 0.00 0.00 0.00 0.00 0.00 0.01 0.01 0.02 0.02 0.02 0.02 0.02 0.02 0.03 0.04 0.05 0.07 0.08 0.08 0.08 0.07 0.06
0.00 0.00 0.00 0.00 0.00 0.00 0.00 0.00 0.00 0.00 0.00 0.00 0.00 0.00 0.00 0.00 0.00 0.00 0.00 0.00 0.00 0.00 0.00 0.00 0.00 0.00 0.00 0.01 0.02 0.02 0.02 0.02 0.02 0.02 0.02 0.02 0.03 0.05 0.04 0.07 0.05 0.06 0.07 0.06
0.00 0.00 0.00 0.00 0.00 0.00 0.00 0.00 0.00 0.00 0.00 0.00 0.00 0.00 0.00 0.00 0.00 0.00 0.00 0.00 0.00 0.00 0.00 0.00 0.00 0.00 0.01 0.01 0.02 0.03 0.03 0.02 0.02 0.02 0.02 0.02 0.02 0.03 0.03 0.02 0.02 0.02 0.03 0.03
0.00 0.00 0.00 0.00 0.00 0.00 0.00 0.00 0.00 0.00 0.00 0.00 0.00 0.00 0.00 0.00 0.00 0.00 0.00 0.00 0.00 0.00 0.00 0.00 0.00 0.00 0.01 0.02 0.02 0.03 0.03 0.02 0.02 0.01 0.02 0.02 0.02 0.03 0.04 0.04 0.03 0.02 0.02 0.02
0.00 0.00 0.00 0.00 0.00 0.00 0.00 0.00 0.00 0.00 0.00 0.00 0.00 0.00 0.00 0.00 0.00 0.00 0.00 0.00 0.00 0.00 0.00 0.00 0.00 0.00 0.01 0.02 0.02 0.03 0.03 0.03 0.02 0.02 0.03 0.03 0.02 0.02 0.03 0.05 0.07 0.05 0.03 0.02
0.00 0.00 0.00 0.00 0.00 0.00 0.00 0.00 0.00 0.00 0.00 0.00 0.00 0.00 0.00 0.00 0.00 0.00 0.00 0.00 0.00 0.00 0.00 0.00 0.00 0.01 0.01 0.02 0.02 0.02 0.03 0.03 0.02 0.02 0.03 0.03 0.03 0.02 0.03 0.05 0.06 0.05 0.03 0.02
0.00 0.00 0.00 0.00 0.00 0.00 0.00 0.00 0.00 0.00 0.00 0.00 0.00 0.00 0.00 0.00 0.00 0.00 0.00 0.00 0.00 0.00 0.00 0.00 0.00 0.00 0.01 0.02 0.02 0.02 0.02 0.04 0.03 0.01 0.02 0.03 0.04 0.04 0.04 0.05 0.05 0.05 0.04 0.03
0.00 0.00 0.00 0.00 0.00 0.00 0.00 0.00 0.00 0.00 0.00 0.00 0.00 0.00 0.00 0.00 0.00 0.00 0.00 0.00 0.00 0.00 0.00 0.00 0.00 0.00 0.01 0.01 0.01 0.02 0.03 0.04 0.03 0.01 0.02 0.03 0.04 0.05 0.05 0.06 0.05 0.05 0.04 0.02
0.00 0.00 0.00 0.00 0.00 0.00 0.00 0.00 0.00 0.00 0.00 0.00 0.00 0.00 0.00 0.00 0.00 0.00 0.00 0.00 0.00 0.00 0.00 0.00 0.00 0.00 0.00 0.01 0.01 0.01 0.02 0.03 0.02 0.02 0.02 0.03 0.03 0.05 0.06 0.06 0.05 0.05 0.04 0.02
0.00 0.00 0.00 0.00 0.00 0.00 0.00 0.00 0.00 0.00 0.00 0.00 0.00 0.00 0.00 0.00 0.00 0.00 0.00 0.00 0.00 0.00 0.00 0.00 0.00 0.00 0.00 0.00 0.01 0.01 0.02 0.03 0.02 0.02 0.02 0.03 0.03 0.04 0.06 0.06 0.05 0.05 0.05 0.03
0.00 0.00 0.00 0.00 0.00 0.00 0.00 0.00 0.00 0.00 0.00 0.00 0.00 0.00 0.00 0.00 0.00 0.00 0.00 0.00 0.00 0.00 0.00 0.00 0.00 0.00 0.00 0.00 0.00 0.01 0.02 0.03 0.02 0.02 0.02 0.03 0.03 0.03 0.03 0.04 0.04 0.05 0.04 0.04
0.00 0.00 0.00 0.00 0.00 0.00 0.00 0.00 0.00 0.00 0.00 0.00 0.00 0.00 0.00 0.00 0.00 0.00 0.00 0.00 0.00 0.00 0.00 0.00 0.00 0.00 0.00 0.00 0.00 0.01 0.01 0.02 0.02 0.03 0.02 0.02 0.02 0.03 0.03 0.03 0.04 0.04 0.05 0.04
0.00 0.00 0.00 0.00 0.00 0.00 0.00 0.00 0.00 0.00 0.00 0.00 0.00 0.00 0.00 0.00 0.00 0.00 0.00 0.00 0.00 0.00 0.00 0.00 0.00 0.00 0.00 0.00 0.00 0.00 0.01 0.01 0.02 0.02 0.02 0.02 0.02 0.02 0.02 0.02 0.03 0.03 0.04 0.05
0.00 0.00 0.00 0.00 0.00 0.00 0.00 0.00 0.00 0.00 0.00 0.00 0.00 0.00 0.00 0.00 0.00 0.00 0.00 0.00 0.00 0.00 0.00 0.00 0.00 0.00 0.00 0.00 0.00 0.00 0.01 0.00 0.01 0.01 0.02 0.01 0.01 0.01 0.02 0.02 0.02 0.03 0.04 0.05
0.00 0.00 0.00 0.00 0.00 0.00 0.00 0.00 0.00 0.00 0.00 0.00 0.00 0.00 0.00 0.00 0.00 0.00 0.00 0.00 0.00 0.00 0.00 0.00 0.00 0.00 0.01 0.00 0.00 0.00 0.01 0.00 0.00 0.01 0.01 0.01 0.01 0.01 0.01 0.01 0.02 0.03 0.03 0.04
0.00 0.00 0.00 0.00 0.00 0.01 0.01 0.00 0.00 0.00 0.00 0.00 0.00 0.00 0.00 0.00 0.00 0.00 0.00 0.00 0.00 0.00 0.00 0.00 0.00 0.00 0.00 0.00 0.00 0.00 0.00 0.01 0.01 0.01 0.01 0.01 0.00 0.00 0.01 0.01 0.01 0.01 0.01 0.02
0.00 0.00 0.00 0.01 0.01 0.01 0.01 0.01 0.01 0.02 0.02 0.01 0.01 0.00 0.00 0.00 0.00 0.00 0.00 0.00 0.00 0.00 0.00 0.00 0.00 0.00 0.00 0.00 0.00 0.00 0.00 0.01 0.01 0.01 0.01 0.00 0.00 0.00 0.00 0.00 0.01 0.01 0.00 0.01
0.00 0.01 0.01 0.01 0.02 0.03 0.03 0.03 0.04 0.04 0.03 0.03 0.02 0.01 0.00 0.00 0.00 0.00 0.00 0.00 0.00 0.00 0.00 0.00 0.00 0.00 0.00 0.00 0.00 0.00 0.01 0.00 0.01 0.01 0.01 0.00 0.00 0.00 0.00 0.00 0.00 0.00 0.01 0.01
MSLP
1014.18 1014.38 1014.54 1014.69 1014.81 1014.91 1014.99 1015.03 1015.03 1015.00 1014.94 1014.85 1014.75 1014.64 1014.54 1014.45 1014.36 1014.27 1014.18 1014.07 1013.93 1013.76 1013.57 1013.34 1013.10 1012.84 1012.56 1012.28 1011.98 1011.66 1011.31 1010.92 1010.49 1010.03 1009.53 1009.00 1008.48 1007.96 1007.47 1007.01 1006.58 1006.20 1005.85 1005.54
1014.31 1014.53 1014.69 1014.81 1014.88 1014.92 1014.92 1014.89 1014.84 1014.77 1014.70 1014.62 1014.54 1014.46 1014.40 1014.33 1014.26 1014.18 1014.08 1013.96 1013.80 1013.62 1013.41 1013.17 1012.92 1012.66 1012.38 1012.09 1011.78 1011.43 1011.04 1010.61 1010.14 1009.63 1009.09 1008.54 1008.00 1007.47 1006.98 1006.51 1006.08 1005.67 1005.29 1004.93
1014.36 1014.57 1014.72 1014.80 1014.83 1014.81 1014.75 1014.68 1014.60 1014.51 1014.44 1014.38 1014.34 1014.31 1014.28 1014.24 1014.18 1014.10 1013.98 1013.83 1013.63 1013.41 1013.17 1012.91 1012.64 1012.36 1012.07 1011.77 1011.43 1011.06 1010.64 1010.17 1009.66 1009.11 1008.54 1007.98 1007.43 1006.90 1006.41 1005.95 1005.53 1005.12 1004.72 1004.34
1014.33 1014.51 1014.62 1014.66 1014.64 1014.57 1014.47 1014.37 1014.27 1014.19 1014.14 1014.12 1014.13 1014.14 1014.15 1014.13 1014.08 1013.98 1013.83 1013.63 1013.39 1013.12 1012.83 1012.53 1012.23 1011.93 1011.62 1011.30 1010.94 1010.55 1010.10 1009.60 1009.06 1008.48 1007.89 1007.31 1006.75 1006.23 1005.75 1005.32 1004.91 1004.53 1004.15 1003.77
1014.20 1014.33 1014.38 1014.37 1014.29 1014.18 1014.05 1013.94 1013.84 1013.79 1013.78 1013.80 1013.85 1013.91 1013.95 1013.96 1013.90 1013.78 1013.60 1013.35 1013.05 1012.72 1012.38 1012.04 1011.71 1011.39 1011.06 1010.73 1010.36 1009.95 1009.48 1008.96 1008.39 1007.79 1007.18 1006.57 1006.01 1005.49 1005.03 1004.62 1004.25 1003.90 1003.56 1003.23
1013.95 1014.01 1013.99 1013.92 1013.80 1013.65 1013.51 1013.39 1013.32 1013.30 1013.33 1013.40 1013.50 1013.60 1013.67 1013.69 1013.63 1013.49 1013.27 1012.98 1012.63 1012.26 1011.87 1011.50 1011.14 1010.80 1010.47 1010.13 1009.76 1009.34 1008.86 1008.32 1007.72 1007.09 1006.45 1005.83 1005.25 1004.73 1004.27 1003.89 1003.55 1003.26 1002.99 1002.72
1013.56 1013.53 1013.44 1013.32 1013.16 1013.00 1012.86 1012.76 1012.72 1012.74 1012.81 1012.94 1013.08 1013.22 1013.31 1013.34 1013.28 1013.12 1012.87 1012.54 1012.16 1011.75 1011.35 1010.96 1010.59 1010.25 1009.92 1009.58 1009.21 1008.79 1008.30 1007.74 1007.12 1006.46 1005.78 1005.13 1004.52 1003.98 1003.53 1003.17 1002.87 1002.64 1002.44 1002.26
1012.99 1012.89 1012.75 1012.59 1012.42 1012.27 1012.15 1012.08 1012.08 1012.15 1012.28 1012.45 1012.63 1012.79 1012.90 1012.92 1012.86 1012.69 1012.42 1012.08 1011.69 1011.27 1010.86 1010.48 1010.12 1009.79 1009.48 1009.15 1008.78 1008.35 1007.85 1007.27 1006.61 1005.91 1005.20 1004.50 1003.86 1003.31 1002.85 1002.50 1002.24 1002.06 1001.95 1001.86
1012.26 1012.10 1011.93 1011.76 1011.61 1011.49 1011.43 1011.42 1011.47 1011.60 1011.77 1011.98 1012.18 1012.35 1012.47 1012.49 1012.42 1012.25 1011.98 1011.64 1011.26 1010.86 1010.47 1010.11 1009.78 1009.47 1009.17 1008.85 1008.48 1008.04 1007.51 1006.90 1006.21 1005.46 1004.70 1003.97 1003.29 1002.72 1002.25 1001.92 1001.69 1001.57 1001.53 1001.54
1011.37 1011.18 1011.02 1010.88 1010.78 1010.73 1010.74 1010.81 1010.94 1011.12 1011.34 1011.57 1011.79 1011.97 1012.07 1012.09 1012.01 1011.84 1011.58 1011.25 1010.90 1010.53 1010.18 1009.86 1009.56 1009.27 1008.98 1008.66 1008.28 1007.81 1007.25 1006.59 1005.85 1005.06 1004.26 1003.49 1002.79 1002.20 1001.74 1001.42 1001.24 1001.17 1001.19 1001.28
1010.35 1010.18 1010.05 1009.98 1009.96 1010.01 1010.11 1010.28 1010.49 1010.74 1011.00 1011.25 1011.48 1011.65 1011.74 1011.74 1011.65 1011.48 1011.24 1010.94 1010.62 1010.30 1009.99 1009.71 1009.43 1009.16 1008.87 1008.53 1008.11 1007.60 1006.99 1006.28 1005.49 1004.66 1003.82 1003.03 1002.32 1001.74 1001.30 1001.01 1000.86 1000.84 1000.92 1001.07
1009.26 1009.12 1009.06 1009.07 1009.17 1009.33 1009.55 1009.82 1010.12 1010.44 1010.74 1011.02 1011.24 1011.39 1011.46 1011.44 1011.35 1011.18 1010.95 1010.69 1010.42 1010.14 1009.87 1009.62 1009.36 1009.08 1008.77 1008.39 1007.91 1007.34 1006.66 1005.89 1005.05 1004.18 1003.32 1002.53 1001.84 1001.29 1000.88 1000.64 1000.55 1000.58 1000.71 1000.90
1008.14 1008.05 1008.07 1008.19 1008.40 1008.69 1009.03 1009.41 1009.80 1010.18 1010.52 1010.81 1011.03 1011.16 1011.21 1011.18 1011.08 1010.92 1010.71 1010.48 1010.24 1010.01 1009.77 1009.53 1009.28 1008.98 1008.62 1008.18 1007.63 1006.97 1006.22 1005.38 1004.49 1003.60 1002.74 1001.97 1001.32 1000.82 1000.48 1000.31 1000.27 1000.35 1000.52 1000.73
1007.07 1007.03 1007.12 1007.34 1007.66 1008.06 1008.51 1008.99 1009.46 1009.90 1010.28 1010.59 1010.80 1010.93 1010.96 1010.92 1010.82 1010.66 1010.48 1010.28 1010.08 1009.88 1009.66 1009.43 1009.16 1008.82 1008.40 1007.88 1007.24 1006.50 1005.66 1004.76 1003.84 1002.93 1002.09 1001.36 1000.77 1000.34 1000.08 999.98 1000.01 1000.14 1000.33 1000.55
1006.10 1006.11 1006.26 1006.54 1006.95 1007.44 1007.98 1008.54 1009.08 1009.57 1009.98 1010.30 1010.52 1010.65 1010.68 1010.64 1010.54 1010.40 1010.25 1010.08 1009.91 1009.73 1009.53 1009.29 1008.99 1008.61 1008.12 1007.51 1006.79 1005.96 1005.06 1004.10 1003.15 1002.24 1001.43 1000.75 1000.23 999.88 999.70 999.67 999.76 999.93 1000.14 1000.34
1005.32 1005.34 1005.52 1005.85 1006.30 1006.84 1007.44 1008.05 1008.63 1009.16 1009.60 1009.94 1010.17 1010.31 1010.35 1010.32 1010.24 1010.13 1010.00 1009.87 1009.73 1009.57 1009.38 1009.13 1008.80 1008.37 1007.82 1007.15 1006.35 1005.45 1004.48 1003.49 1002.52 1001.62 1000.84 1000.21 999.76 999.48 999.37 999.40 999.54 999.73 999.93 1000.12
1004.78 1004.80 1004.97 1005.29 1005.75 1006.30 1006.91 1007.54 1008.15 1008.69 1009.15 1009.52 1009.77 1009.91 1009.98 1009.97 1009.92 1009.85 1009.76 1009.65 1009.54 1009.41 1009.22 1008.97 1008.63 1008.16 1007.57 1006.84 1005.99 1005.04 1004.04 1003.03 1002.05 1001.17 1000.42 999.84 999.43 999.20 999.14 999.20 999.34 999.53 999.72 999.86
1004.53 1004.51 1004.64 1004.92 1005.34 1005.86 1006.44 1007.06 1007.66 1008.21 1008.68 1009.05 1009.33 1009.50 1009.59 1009.62 1009.61 1009.57 1009.51 1009.45 1009.36 1009.25 1009.08 1008.84 1008.49 1008.01 1007.40 1006.65 1005.78 1004.82 1003.81 1002.80 1001.83 1000.97 1000.24 999.68 999.29 999.08 999.02 999.08 999.20 999.36 999.50 999.60
1004.57 1004.49 1004.54 1004.75 1005.09 1005.54 1006.07 1006.64 1007.21 1007.74 1008.21 1008.59 1008.89 1009.09 1009.22 1009.28 1009.30 1009.30 1009.28 1009.25 1009.19 1009.10 1008.96 1008.73 1008.40 1007.94 1007.34 1006.61 1005.75 1004.81 1003.82 1002.84 1001.89 1001.04 1000.33 999.77 999.38 999.15 999.05 999.06 999.13 999.22 999.30 999.34
1004.84 1004.68 1004.64 1004.74 1004.98 1005.34 1005.79 1006.29 1006.81 1007.31 1007.77 1008.16 1008.47 1008.70 1008.85 1008.95 1009.01 1009.04 1009.05 1009.04 1009.02 1008.95 1008.84 1008.64 1008.34 1007.91 1007.36 1006.68 1005.88 1004.99 1004.05 1003.11 1002.20 1001.38 1000.67 1000.10 999.67 999.39 999.22 999.15 999.13 999.13 999.13 999.09
1005.24 1004.98 1004.84 1004.83 1004.96 1005.21 1005.56 1005.98 1006.44 1006.91 1007.35 1007.74 1008.05 1008.30 1008.49 1008.62 1008.70 1008.75 1008.79 1008.81 1008.80 1008.77 1008.68 1008.52 1008.27 1007.90 1007.42 1006.81 1006.09 1005.29 1004.42 1003.55 1002.69 1001.89 1001.18 1000.59 1000.11 999.76 999.50 999.32 999.20 999.10 999.00 998.89
1005.62 1005.28 1005.03 1004.91 1004.92 1005.06 1005.32 1005.66 1006.06 1006.49 1006.90 1007.29 1007.62 1007.88 1008.09 1008.24 1008.35 1008.43 1008.48 1008.52 1008.53 1008.52 1008.46 1008.34 1008.14 1007.85 1007.45 1006.93 1006.32 1005.61 1004.85 1004.05 1003.26 1002.49 1001.80 1001.18 1000.65 1000.21 999.86 999.57 999.33 999.13 998.94 998.76
1005.87 1005.44 1005.10 1004.87 1004.78 1004.82 1004.99 1005.26 1005.61 1005.99 1006.39 1006.77 1007.11 1007.40 1007.63 1007.81 1007.94 1008.03 1008.10 1008.15 1008.18 1008.19 1008.16 1008.09 1007.95 1007.73 1007.41 1007.00 1006.49 1005.90 1005.24 1004.54 1003.82 1003.10 1002.42 1001.79 1001.21 1000.71 1000.27 999.88 999.54 999.24 998.97 998.72
1005.89 1005.38 1004.95 1004.64 1004.45 1004.42 1004.51 1004.72 1005.02 1005.38 1005.77 1006.15 1006.51 1006.82 1007.08 1007.29 1007.45 1007.57 1007.66 1007.73 1007.77 1007.80 1007.81 1007.77 1007.68 1007.53 1007.31 1006.99 1006.59 1006.11 1005.56 1004.96 1004.32 1003.66 1003.00 1002.37 1001.77 1001.22 1000.71 1000.24 999.82 999.44 999.10 998.80
1005.64 1005.06 1004.57 1004.18 1003.93 1003.83 1003.87 1004.04 1004.31 1004.66 1005.04 1005.44 1005.82 1006.17 1006.46 1006.71 1006.91 1007.06 1007.18 1007.28 1007.35 1007.40 1007.43 1007.43 1007.40 1007.31 1007.16 1006.94 1006.64 1006.26 1005.81 1005.30 1004.74 1004.14 1003.53 1002.92 1002.31 1001.73 1001.17 1000.65 1000.17 999.73 999.35 999.01
1005.16 1004.53 1003.99 1003.55 1003.25 1003.11 1003.11 1003.26 1003.51 1003.85 1004.25 1004.67 1005.09 1005.48 1005.83 1006.13 1006.37 1006.58 1006.74 1006.87 1006.97 1007.06 1007.12 1007.16 1007.17 1007.13 1007.04 1006.89 1006.68 1006.39 1006.03 1005.60 1005.12 1004.59 1004.02 1003.43 1002.84 1002.25 1001.67 1001.13 1000.61 1000.14 999.72 999.37
1004.55 1003.89 1003.31 1002.85 1002.53 1002.35 1002.34 1002.47 1002.72 1003.07 1003.49 1003.94 1004.40 1004.84 1005.25 1005.61 1005.92 1006.18 1006.40 1006.58 1006.73 1006.86 1006.96 1007.03 1007.07 1007.08 1007.04 1006.95 1006.79 1006.57 1006.28 1005.92 1005.50 1005.03 1004.51 1003.96 1003.38 1002.80 1002.23 1001.67 1001.14 1000.66 1000.22 999.85
Thickness
5734 5733 5730 5724 5718 5714 5710 5704 5697 5694 5692 5694 5690 5681 5674 5667 5661 5654 5647 5640 5633 5627 5622 5616 5610 5604 5599 5594 5590 5586 5581 5577 5572 5566 5559 5552 5545 5538 5531 5526 5524 5524 5525 5529
5727 5728 5725 5717 5715 5710 5705 5702 5698 5694 5693 5698 5688 5679 5671 5663 5655 5648 5641 5635 5629 5623 5617 5611 5604 5598 5593 5588 5583 5577 5571 5566 5560 5553 5547 5539 5530 5521 5513 5508 5504 5503 5504 5508
5725 5725 5717 5711 5718 5710 5705 5705 5697 5689 5691 5691 5680 5672 5664 5657 5649 5642 5635 5629 5624 5618 5613 5606 5600 5593 5587 5581 5576 5569 5563 5557 5550 5543 5536 5527 5517 5508 5499 5493 5488 5486 5488 5492
5723 5712 5695 5716 5724 5715 5704 5702 5702 5696 5693 5686 5677 5670 5664 5657 5646 5637 5631 5625 5619 5614 5609 5603 5596 5589 5581 5575 5568 5562 5556 5549 5542 5534 5525 5516 5506 5497 5489 5481 5477 5474 5475 5478
5718 5712 5715 5716 5714 5710 5700 5698 5705 5695 5689 5684 5679 5667 5668 5656 5643 5634 5627 5620 5614 5608 5603 5597 5590 5583 5575 5569 5563 5556 5550 5542 5534 5525 5516 5508 5499 5490 5481 5474 5470 5467 5467 5470
5715 5699 5695 5714 5717 5712 5699 5692 5703 5694 5685 5679 5671 5662 5661 5652 5641 5632 5624 5617 5610 5604 5598 5593 5586 5577 5569 5563 5557 5551 5544 5536 5528 5519 5510 5503 5495 5486 5479 5471 5466 5464 5464 5467
5714 5705 5715 5721 5715 5704 5687 5690 5698 5692 5683 5674 5665 5657 5654 5647 5638 5629 5622 5615 5608 5600 5594 5588 5581 5572 5564 5558 5552 5546 5538 5531 5524 5516 5508 5501 5493 5485 5477 5470 5466 5463 5463 5466
5710 5701 5707 5719 5709 5701 5701 5703 5696 5688 5681 5672 5663 5657 5650 5642 5633 5626 5619 5613 5605 5598 5591 5584 5576 5567 5560 5555 5549 5542 5535 5529 5523 5516 5508 5501 5492 5485 5479 5472 5468 5466 5466 5468
5720 5717 5722 5723 5718 5717 5711 5701 5695 5688 5681 5671 5661 5654 5647 5638 5630 5622 5615 5609 5602 5595 5589 5581 5572 5563 5556 5552 5546 5539 5533 5528 5522 5516 5509 5502 5494 5488 5482 5476 5472 5470 5469 5472
5717 5725 5726 5723 5720 5716 5710 5701 5695 5687 5678 5669 5659 5652 5643 5635 5626 5619 5612 5605 5599 5592 5585 5578 5569 5561 5554 5549 5543 5537 5532 5528 5523 5518 5512 5506 5498 5492 5486 5481 5476 5473 5473 5475
5715 5723 5724 5722 5720 5716 5710 5702 5693 5685 5676 5666 5656 5647 5639 5630 5622 5615 5608 5601 5594 5587 5581 5574 5567 5559 5553 5547 5540 5535 5532 5528 5525 5520 5515 5508 5503 5496 5491 5485 5477 5473 5474 5476
5719 5729 5722 5722 5724 5718 5708 5698 5690 5681 5672 5664 5654 5644 5635 5627 5619 5611 5604 5597 5591 5584 5577 5570 5564 5557 5551 5545 5539 5534 5531 5529 5527 5523 5518 5512 5507 5503 5494 5486 5478 5473 5471 5471
5733 5736 5732 5729 5723 5715 5706 5698 5690 5679 5669 5659 5651 5641 5632 5624 5616 5608 5601 5595 5587 5580 5573 5567 5561 5555 5550 5543 5538 5535 5532 5530 5528 5526 5522 5516 5512 5509 5504 5495 5484 5479 5476 5475
5735 5728 5722 5722 5717 5712 5705 5697 5688 5677 5667 5657 5647 5638 5630 5621 5614 5606 5599 5592 5584 5577 5571 5565 5558 5553 5548 5542 5539 5537 5534 5533 5530 5528 5525 5521 5516 5513 5510 5506 5501 5495 5485 5479
5733 5727 5723 5723 5716 5708 5700 5691 5680 5672 5663 5654 5645 5636 5627 5619 5611 5604 5597 5590 5582 5575 5569 5562 5556 5551 5546 5542 5540 5538 5537 5536 5534 5532 5529 5526 5520 5517 5514 5510 5506 5502 5498 5492
5732 5726 5719 5714 5708 5702 5694 5685 5675 5668 5661 5651 5642 5633 5625 5616 5609 5602 5596 5588 5579 5573 5567 5560 5554 5549 5544 5542 5540 5540 5539 5537 5534 5535 5534 5530 5524 5519 5516 5513 5510 5507 5504 5503
5723 5718 5713 5707 5703 5698 5691 5683 5674 5666 5658 5648 5639 5630 5622 5614 5607 5601 5594 5586 5577 5570 5565 5557 5551 5546 5544 5542 5541 5541 5541 5541 5538 5538 5537 5532 5527 5521 5517 5514 5511 5509 5508 5504
5723 5720 5716 5709 5703 5696 5687 5679 5671 5661 5652 5643 5635 5626 5618 5611 5604 5598 5591 5584 5576 5570 5564 5555 5548 5544 5544 5543 5541 5541 5542 5543 5542 5542 5539 5534 5529 5524 5519 5515 5513 5511 5510 5508
5716 5712 5709 5704 5699 5691 5683 5674 5665 5657 5647 5638 5629 5621 5614 5607 5601 5595 5588 5581 5576 5570 5562 5554 5546 5545 5545 5544 5541 5542 5542 5544 5544 5543 5540 5534 5531 5528 5523 5518 5516 5514 5513 5513
5704 5702 5699 5695 5689 5683 5675 5667 5659 5649 5641 5632 5624 5616 5610 5605 5598 5592 5586 5580 5574 5564 5556 5550 5547 5546 5544 5542 5539 5542 5542 5543 5544 5543 5542 5539 5535 5531 5528 5523 5519 5518 5517 5516
5689 5689 5686 5682 5677 5672 5667 5660 5652 5643 5634 5626 5618 5612 5606 5600 5594 5589 5584 5581 5572 5561 5553 5549 5547 5544 5541 5538 5539 5541 5541 5541 5542 5542 5541 5540 5538 5534 5531 5527 5523 5521 5520 5519
5671 5672 5672 5670 5666 5661 5658 5653 5645 5637 5629 5621 5614 5608 5601 5595 5592 5587 5581 5575 5567 5556 5552 5551 5546 5539 5535 5536 5540 5539 5539 5540 5540 5541 5541 5540 5540 5538 5535 5532 5529 5526 5524 5522
5653 5655 5655 5655 5653 5651 5648 5644 5639 5631 5624 5616 5610 5603 5598 5592 5588 5583 5579 5572 5564 5554 5551 5549 5540 5535 5533 5537 5538 5537 5536 5536 5537 5539 5540 5540 5541 5541 5539 5537 5534 5531 5529 5528
5636 5638 5640 5640 5641 5638 5636 5634 5630 5624 5618 5611 5605 5599 5592 5589 5586 5581 5574 5564 5557 5550 5552 5545 5537 5534 5533 5535 5534 5533 5532 5532 5534 5535 5538 5540 5542 5542 5542 5540 5539 5537 5534 5533
5620 5623 5626 5626 5626 5627 5627 5624 5620 5614 5610 5605 5600 5593 5588 5584 5579 5575 5567 5562 5554 5549 5550 5545 5538 5533 5533 5532 5530 5528 5528 5528 5528 5530 5533 5536 5539 5541 5542 5542 5542 5542 5541 5538
5605 5610 5615 5616 5617 5618 5621 5619 5615 5609 5602 5596 5593 5588 5583 5577 5571 5566 5562 5559 5554 5547 5546 5543 5539 5534 5531 5528 5526 5524 5524 5524 5526 5527 5529 5532 5535 5538 5541 5542 5543 5545 5544 5543
5593 5599 5602 5606 5610 5611 5611 5610 5606 5601 5596 5591 5586 5581 5577 5572 5566 5562 5558 5555 5551 5547 5542 5538 5534 5530 5526 5524 5521 5520 5520 5520 5521 5523 5525 5528 5532 5534 5538 5540 5543 5545 5546 5547